Moose Lake, MN

2:37 PM CDT on March 30, 2017 (GMT -0500)
Moose Lake-Carlton County

Weather History for KMZH - January, 2014

Change the Weather History Date:

Saturday, January 18, 2014

  Actual Average Record
Temperature  
Mean Temperature 14 °F -  
Max Temperature 24 °F 20 °F 48 °F (1981)
Min Temperature 3 °F 0 °F -38 °F (1967)
Degree Days  
Heating Degree Days 52    
Moisture  
Dew Point 4 °F    
Average Humidity 64    
Maximum Humidity 85    
Minimum Humidity 36    
Precipitation  
Precipitation 0.00 in - - ()
Sea Level Pressure  
Sea Level Pressure 29.73 in    
Wind  
Wind Speed 4 mph (SW)    
Max Wind Speed 12 mph    
Max Gust Speed 17 mph    
Visibility 10 miles    
Events Snow    
Averages and records for this station are not official NWS values.
T = Trace of Precipitation, MM = Missing Value Source: NWS Daily Summary

Daily Weather History Graph

Daily Weather History Graph

Search for Another Location

Airport or City:

Trip Planner

Search our weather history database for the weather conditions in past years. The results will help you decide how hot, cold, wet, or windy it might be!

Date:

Astronomy

Jan. 18, 2014 Rise Set
Actual Time 7:48 AM CST 4:55 PM CST
Civil Twilight 7:14 AM CST 5:28 PM CST
Nautical Twilight 6:37 AM CST 6:05 PM CST
Astronomical Twilight 6:01 AM CST 6:41 PM CST
Moon 7:50 PM CST (1/18) 8:37 AM CST (1/18)
Length of Visible Light 10h 13m
Length of Day
9h 06m
Waning Gibbous, 94% of the Moon is Illuminated
Jan 18
Waning Gibbous
Jan 23
Last Quarter
Jan 30
New
Feb 6
First Quarter
Feb 14
Full

Hourly Weather History & Observations

Time (CST) Temp. Windchill Dew Point Humidity Pressure Visibility Wind Dir Wind Speed Gust Speed Precip Events Conditions
12:08 AM 5.0 °F -2.1 °F -2.2 °F 72% 29.73 in 10.0 mi SSE 3.5 mph - N/A   Overcast
12:28 AM 6.8 °F - -0.4 °F 72% 29.71 in 10.0 mi Calm Calm - N/A   Overcast
12:48 AM 6.8 °F - -0.4 °F 72% 29.70 in 10.0 mi Calm Calm - N/A   Overcast
1:08 AM 6.8 °F - -0.4 °F 72% 29.69 in 10.0 mi Calm Calm - N/A   Overcast
1:28 AM 6.8 °F -0.1 °F -0.4 °F 72% 29.67 in 10.0 mi ESE 3.5 mph - N/A   Overcast
1:48 AM 6.8 °F -0.1 °F -0.4 °F 72% 29.66 in 10.0 mi East 3.5 mph - N/A   Overcast
2:08 AM 6.8 °F - -0.4 °F 72% 29.66 in 10.0 mi Calm Calm - N/A   Overcast
2:28 AM 8.6 °F - -0.4 °F 67% 29.65 in 10.0 mi Calm Calm - N/A   Overcast
2:48 AM 8.6 °F 2.0 °F 1.4 °F 73% 29.65 in 10.0 mi East 3.5 mph - N/A   Overcast
3:08 AM 8.6 °F - 1.4 °F 73% 29.65 in 10.0 mi Calm Calm - N/A   Overcast
3:28 AM 8.6 °F 2.0 °F 1.4 °F 73% 29.65 in 10.0 mi East 3.5 mph - N/A   Overcast
3:48 AM 10.4 °F - 1.4 °F 67% 29.65 in 10.0 mi Calm Calm - N/A   Overcast
4:08 AM 10.4 °F 2.2 °F 1.4 °F 67% 29.65 in 10.0 mi East 4.6 mph - N/A   Overcast
4:28 AM 10.4 °F 4.0 °F 1.4 °F 67% 29.64 in 10.0 mi East 3.5 mph - N/A   Overcast
4:48 AM 10.4 °F 0.8 °F 3.2 °F 73% 29.64 in 4.0 mi East 5.8 mph - N/A Snow Light Snow
5:08 AM 10.4 °F 0.8 °F 5.0 °F 79% 29.64 in 2.5 mi East 5.8 mph - N/A Snow Light Snow
5:28 AM 8.6 °F 0.1 °F 3.2 °F 79% 29.64 in 3.0 mi ENE 4.6 mph - N/A Snow Light Snow
5:48 AM 8.6 °F 0.1 °F 1.4 °F 73% 29.65 in 10.0 mi NE 4.6 mph - N/A   Overcast
6:08 AM 6.8 °F -0.1 °F -0.4 °F 72% 29.66 in 10.0 mi ENE 3.5 mph - N/A   Overcast
6:28 AM 5.0 °F -4.1 °F -0.4 °F 78% 29.67 in 10.0 mi NE 4.6 mph - N/A   Overcast
6:48 AM 5.0 °F -4.1 °F -2.2 °F 72% 29.69 in 10.0 mi ENE 4.6 mph - N/A   Overcast
7:08 AM 5.0 °F -4.1 °F -0.4 °F 78% 29.70 in 10.0 mi ENE 4.6 mph - N/A   Overcast
7:28 AM 3.2 °F -6.2 °F -0.4 °F 85% 29.71 in 10.0 mi NE 4.6 mph - N/A   Scattered Clouds
7:48 AM 3.2 °F -6.2 °F -2.2 °F 78% 29.72 in 10.0 mi NE 4.6 mph - N/A   Mostly Cloudy
8:08 AM 3.2 °F -6.2 °F -2.2 °F 78% 29.74 in 10.0 mi NE 4.6 mph - N/A   Overcast
8:28 AM 5.0 °F -4.1 °F -0.4 °F 78% 29.76 in 10.0 mi NE 4.6 mph - N/A   Overcast
8:48 AM 5.0 °F -4.1 °F -0.4 °F 78% 29.76 in 10.0 mi NE 4.6 mph - N/A   Overcast
9:08 AM 6.8 °F -0.1 °F -0.4 °F 72% 29.77 in 10.0 mi NE 3.5 mph - N/A   Mostly Cloudy
9:28 AM 8.6 °F - -0.4 °F 67% 29.77 in 10.0 mi Calm Calm - N/A   Mostly Cloudy
9:48 AM 10.4 °F 0.8 °F 1.4 °F 67% 29.81 in 10.0 mi NE 5.8 mph - N/A   Overcast
10:08 AM 10.4 °F 2.2 °F 1.4 °F 67% 29.81 in 10.0 mi NE 4.6 mph - N/A   Mostly Cloudy
10:28 AM 12.2 °F 1.7 °F 1.4 °F 62% 29.82 in 10.0 mi NNE 6.9 mph - N/A   Scattered Clouds
10:48 AM 14.0 °F 5.1 °F 3.2 °F 62% 29.83 in 10.0 mi NE 5.8 mph - N/A   Clear
11:08 AM 15.8 °F 7.2 °F 3.2 °F 58% 29.83 in 10.0 mi NNE 5.8 mph - N/A   Clear
11:28 AM 17.6 °F 10.7 °F 3.2 °F 53% 29.85 in 10.0 mi NE 4.6 mph - N/A   Clear
11:48 AM 17.6 °F 12.3 °F 5.0 °F 58% 29.85 in 10.0 mi NE 3.5 mph - N/A   Clear
12:08 PM 19.4 °F - 5.0 °F 54% 29.85 in 10.0 mi Calm Calm - N/A   Clear
12:28 PM 19.4 °F - 5.0 °F 54% 29.84 in 10.0 mi Calm Calm - N/A   Clear
12:48 PM 21.2 °F 16.4 °F 3.2 °F 46% 29.83 in 10.0 mi NNE 3.5 mph - N/A   Clear
1:08 PM 21.2 °F 14.9 °F 3.2 °F 46% 29.83 in 10.0 mi NNW 4.6 mph - N/A   Clear
1:28 PM 21.2 °F 14.9 °F 3.2 °F 46% 29.83 in 10.0 mi West 4.6 mph - N/A   Clear
1:48 PM 21.2 °F - 3.2 °F 46% 29.82 in 10.0 mi Calm Calm - N/A   Clear
2:08 PM 21.2 °F 14.9 °F 3.2 °F 46% 29.81 in 10.0 mi WSW 4.6 mph - N/A   Clear
2:28 PM 23.0 °F 18.4 °F 3.2 °F 43% 29.81 in 10.0 mi SSW 3.5 mph - N/A   Clear
2:48 PM 23.0 °F - 3.2 °F 43% 29.82 in 10.0 mi Calm Calm - N/A   Clear
3:08 PM 23.0 °F 14.7 °F 3.2 °F 43% 29.81 in 10.0 mi SW 6.9 mph - N/A   Clear
3:28 PM 23.0 °F 17.0 °F 5.0 °F 46% 29.82 in 10.0 mi WSW 4.6 mph - N/A   Clear
3:48 PM 23.0 °F 17.0 °F 3.2 °F 43% 29.83 in 10.0 mi West 4.6 mph - N/A   Clear
4:08 PM 24.8 °F 16.1 °F 1.4 °F 36% 29.84 in 10.0 mi West 8.1 mph - N/A   Clear
4:28 PM 23.0 °F 15.8 °F 1.4 °F 39% 29.84 in 10.0 mi West 5.8 mph - N/A   Clear
4:48 PM 21.2 °F 16.4 °F 3.2 °F 46% 29.83 in 10.0 mi WSW 3.5 mph - N/A   Clear
5:08 PM 21.2 °F 14.9 °F 3.2 °F 46% 29.82 in 10.0 mi SW 4.6 mph - N/A   Clear
5:28 PM 19.4 °F 12.8 °F 3.2 °F 49% 29.81 in 10.0 mi SW 4.6 mph - N/A   Clear
5:48 PM 19.4 °F 11.5 °F 1.4 °F 46% 29.81 in 10.0 mi SW 5.8 mph - N/A   Clear
6:08 PM 19.4 °F 9.5 °F 1.4 °F 46% 29.80 in 10.0 mi SW 8.1 mph - N/A   Clear
6:28 PM 19.4 °F 10.4 °F 3.2 °F 49% 29.77 in 10.0 mi SW 6.9 mph - N/A   Mostly Cloudy
6:48 PM 19.4 °F 10.4 °F 5.0 °F 54% 29.76 in 10.0 mi SW 6.9 mph - N/A   Overcast
7:08 PM 19.4 °F 10.4 °F 5.0 °F 54% 29.75 in 10.0 mi SSW 6.9 mph - N/A   Overcast
7:28 PM 19.4 °F 10.4 °F 6.8 °F 58% 29.74 in 10.0 mi SW 6.9 mph - N/A   Overcast
7:48 PM 19.4 °F 10.4 °F 8.6 °F 63% 29.72 in 10.0 mi SW 6.9 mph - N/A   Overcast
8:08 PM 19.4 °F 7.9 °F 10.4 °F 68% 29.69 in 10.0 mi SW 10.4 mph - N/A   Scattered Clouds
8:28 PM 19.4 °F 9.5 °F 10.4 °F 68% 29.69 in 10.0 mi SW 8.1 mph - N/A   Scattered Clouds
8:48 PM 21.2 °F 10.1 °F 12.2 °F 68% 29.67 in 10.0 mi SW 10.4 mph - N/A   Scattered Clouds
9:08 PM 21.2 °F 10.1 °F 12.2 °F 68% 29.65 in 10.0 mi WSW 10.4 mph - N/A   Scattered Clouds
9:28 PM 21.2 °F 10.1 °F 14.0 °F 74% 29.64 in 10.0 mi WSW 10.4 mph - N/A   Mostly Cloudy
9:48 PM 21.2 °F 11.7 °F 14.0 °F 74% 29.64 in 10.0 mi WSW 8.1 mph - N/A   Overcast
10:08 PM 21.2 °F 10.9 °F 14.0 °F 74% 29.62 in 10.0 mi WSW 9.2 mph - N/A   Overcast
10:28 PM 21.2 °F 9.5 °F 14.0 °F 74% 29.60 in 10.0 mi WSW 11.5 mph - N/A   Overcast
10:48 PM 21.2 °F 11.7 °F 14.0 °F 74% 29.59 in 10.0 mi WSW 8.1 mph 17.3 mph N/A   Overcast
11:08 PM 21.2 °F 10.1 °F 15.8 °F 80% 29.58 in 10.0 mi WSW 10.4 mph - N/A   Overcast
11:28 PM 21.2 °F 9.5 °F 15.8 °F 80% 29.57 in 10.0 mi WSW 11.5 mph - N/A   Overcast
11:48 PM 19.4 °F 7.2 °F 14.0 °F 80% 29.54 in 10.0 mi WSW 11.5 mph 17.3 mph N/A   Overcast